IRIDIUM 137 (43076 NORAD) Tracking and Keplerian Element Data

This shows tracking and keplerian element data for the satellite.

Feedback or suggestion? Click here.




ElementValue
Catalog43076
NameIRIDIUM 137
Epoch Orbit19590
Epoch Day262.06563711
Epoch Year2021
RAAN325.9611
Inclination86.3994
Eccentricity0.0002498
Argument of Perigee88.9063
Mean Anonmoly271.2419
Mean Motion14.34216706
Decay Rate3.8E-07
L11 43076U 17083G 21262.06563711 .00000038 00000-0 64022-5 0 9991
L22 43076 86.3994 325.9611 0002498 88.9063 271.2419 14.34216706195909

Live tracking and technical data element details for IRIDIUM 137 (NORAD 43076). IRIDIUM 137 can be tracked NOW for your location showing map with azimuth and elevation plus other details from your city location.

Track the satellite on the map from your city or location and see movement details for azimuth, elevation, latitude, longitude, range, height, and movement on the map or in text.







IsCatalogInMostPopularTable: catalog: 43076, numindb: 642
Update: records affected: 1



GetName: 43076 IRIDIUM 137

Hit Count: updated at: Sun, 26 Sep 2021 00:26:32 GMT